Voltar ao catálogo

STARLINK-11660

AtivoComunicaçõesVLEO
NORAD 63761·PAYLOAD·🇺🇸 United States

Lançado Apr 29, 2025 de Cape Canaveral Space Force Station

Loading…

Próximas Passagens (próximas 24 horas)

TLE

AtualizadoSource: CelesTrak SupGP

Época: Sep 14, 2026, 15:37 UTC

1 63761C 25089L   26257.65118056 -.00050234  00000+0 -39032-3 0  2573
2 63761  43.0007 233.0312 0001556 265.9325 200.5911 15.70853710    18

Acompanhe STARLINK-11660 em tempo real com AllMySat

Download on the App Store